Location: Jalan Sepang
(2.8072°N, 101.8021°E)
Time: 04:41:08
(UTC+00:00)

Cosmos 1733 Rocket - Pass Details

Date: 15 May 2026
Orbit: 595 x 621 km, 82.5° (Epoch: 7 June)

Event Time Altitude Azimuth Distance (km) Brightness Sun altitude
Rises 22:07:43 0° 334° (NNW) 2,828 6.4 -13.5°
Reaches altitude 10° 22:10:15 10° 320° (NW) 1,926 5.4 -13.0°
Maximum altitude 22:13:39 23° 267° (W) 1,265 4.1 -12.2°
Drops below altitude 10° 22:17:03 10° 213° (SSW) 1,927 5.1 -11.4°
Enters shadow 22:17:15 - 212° (SSW) 1,990 5.2 -11.3°
